Hourly Data Report for October 16, 2015

All times are specified in Local Standard Time (LST). Add 1 hour to adjust for Daylight Saving Time where and when it is observed.

FREDERICTON
NEW BRUNSWICK

45°52'08.000" N
66°32'14.000" W
20.70 m
8101505
71700
YFC

Download Data

Hourly Data (October 2015)
Hourly Data Report for October 16, 2015
Temp Definition
°C
Dew Point Temp Definition
°C
Rel Hum Definition
%
Wind Dir Definition
10's deg

Wind Spd Definition
km/h
Visibility Definition
km
Stn Press Definition
kPa
Hmdx Definition


Wind Chill Definition


Weather Definition


TIME
00:00 Legend Double Dagger 5.1 3.4 89 18 13 16.1 100.88     LegendNANA
01:00 Legend Double Dagger 3.7 2.8 94 20 8 16.1 100.85     LegendNANA
02:00 Legend Double Dagger 2.5 1.9 96 22 8 16.1 100.84     LegendNANA
03:00 Legend Double Dagger 2.8 2.4 97 20 5 16.1 100.78     LegendNANA
04:00 Legend Double Dagger 5.9 5.0 94 18 15 16.1 100.69     LegendNANA
05:00 Legend Double Dagger 5.0 4.3 95 19 9 16.1 100.64     LegendNANA
06:00 Legend Double Dagger 6.2 5.6 96 19 9 16.1 100.59     LegendNANA
07:00 Legend Double Dagger 8.1 7.0 93 18 15 16.1 100.51     LegendNANA
08:00 Legend Double Dagger 9.5 8.1 91 18 21 16.1 100.49     LegendNANA
09:00 Legend Double Dagger 11.1 8.9 86 18 17 16.1 100.47     LegendNANA
10:00 Legend Double Dagger 11.1 9.3 89 20 17 12.9 100.43     Rain
11:00 Legend Double Dagger 11.0 9.7 92 21 17 16.1 100.38     Rain
12:00 Legend Double Dagger 11.5 9.9 90 21 17 16.1 100.32     LegendNANA
13:00 Legend Double Dagger 12.2 9.6 84 22 18 16.1 100.24     LegendNANA
14:00 Legend Double Dagger 11.7 9.0 84 21 17 16.1 100.23     Rain
15:00 Legend Double Dagger 9.5 7.8 89 24 17 16.1 100.32     Rain
16:00 Legend Double Dagger 11.2 8.4 83 23 13 16.1 100.38     LegendNANA
17:00 Legend Double Dagger 8.9 6.1 83 30 17 16.1 100.54     LegendNANA
18:00 Legend Double Dagger 5.7 2.4 79 29 24 16.1 100.72     LegendNANA
19:00 Legend Double Dagger 5.1 1.0 75 31 21 16.1 100.91     LegendNANA
20:00 Legend Double Dagger 4.1 0.7 79 28 9 16.1 101.01     LegendNANA
21:00 Legend Double Dagger 3.0 0.2 82 28 9 16.1 101.05     LegendNANA
22:00 Legend Double Dagger 2.1 0.2 87 26 9 16.1 101.05     LegendNANA
23:00 Legend Double Dagger 0.4 -0.3 95 23 8 16.1 101.09     LegendNANA

Notes on Data Quality.

Legend

  • E = Estimated
  • M = Missing
  • NA = Not Available
  • ‡ = Partner data that is not subject to review by the National Climate Archives
Date modified: